User: anonymous   Login
Location: Keppel Henge
(44.7900°N, 80.9447°W)
Time: 20:35:45
(UTC-04:00)
Language:

STRAND 1 - Orbit

View from above orbital plane
View from above orbital plane
View from above satellite
View from above satellite

Ground track
Ground track

The orbit data is extracted from the following two-line orbital elements,

1 39090U 13009E   18141.54461297  .00000018  00000-0  21634-4 0  9996
2 39090  98.5243 348.2741 0009708  23.6214 336.5415 14.35025148274008
Epoch (UTC): 21 May 2018 13:04:14
Eccentricity: 0.0009708
inclination: 98.5243°
perigee height: 768 km
apogee height: 782 km
right ascension of ascending node: 348.2741°
argument of perigee: 23.6214°
revolutions per day: 14.35025148
mean anomaly at epoch: 336.5415°
orbit number at epoch: 27400

The dashed part of the orbit path shows where the satellite is in the earth's shadow,  

DLR